M I D A S
Marine Information and Data Acquisition System
Tripno 1645 of the Zeeleeuw from 2009-02-20 08:07:55 to 2009-02-20 15:34:15
Back to CruiseResearch ActivitiesStationsMapUnderway DataData graphs

EquipmentUnitsComments
TimeDGPSUTC
LatitudeDGPSDM.mWGS84
LongitudeDGPSDM.mWGS84
SpeedMeteo Stationm/sRelative wind speed
DirectionMeteo StationdegRelative wind direction
TemperatureMeteo Stationdeg CelciusAir temperature
PressureMeteo StationPaAtmospheric pressure
HumidityMeteo Station%Relative humidity
Missing or incorrect values are displayed as -999
Metereological data collected by the RV Zeeleeuw from 2009-02-20 07:52:33 to 2009-02-20 15:38:39
                                                                                    Next 1000 lines
Time Latitude Longitude Speed Direction Temperature Pressure Humidity
2009-02-20 07:52:44 51°13.662 2°55.958 -999 -999 -999 -999 -999
2009-02-20 07:52:48 51°13.663 2°55.956 -999 -999 -999 -999 -999
2009-02-20 07:52:53 51°13.664 2°55.953 -999 -999 -999 -999 -999
2009-02-20 07:52:59 51°13.665 2°55.949 -999 -999 -999 -999 -999
2009-02-20 07:53:04 51°13.666 2°55.944 -999 -999 -999 -999 -999
2009-02-20 07:53:09 51°13.668 2°55.939 -999 -999 -999 -999 -999
2009-02-20 07:53:14 51°13.67 2°55.934 -999 -999 -999 -999 -999
2009-02-20 07:53:19 51°13.671 2°55.928 -999 -999 -999 -999 -999
2009-02-20 07:53:24 51°13.673 2°55.922 -999 -999 -999 -999 -999
2009-02-20 07:53:29 51°13.675 2°55.915 -999 -999 -999 -999 -999
2009-02-20 07:53:34 51°13.677 2°55.908 -999 -999 -999 -999 -999
2009-02-20 07:53:39 51°13.679 2°55.901 -999 -999 -999 -999 -999
2009-02-20 07:53:44 51°13.681 2°55.894 -999 -999 -999 -999 -999
2009-02-20 07:53:49 51°13.682 2°55.887 -999 -999 -999 -999 -999
2009-02-20 07:53:54 51°13.684 2°55.88 -999 -999 -999 -999 -999
2009-02-20 07:53:59 51°13.686 2°55.873 -999 -999 -999 -999 -999
2009-02-20 07:54:04 51°13.687 2°55.866 -999 -999 -999 -999 -999
2009-02-20 07:54:09 51°13.689 2°55.858 -999 -999 -999 -999 -999
2009-02-20 07:54:14 51°13.69 2°55.851 -999 -999 -999 -999 -999
2009-02-20 07:54:19 51°13.691 2°55.843 -999 -999 -999 -999 -999
2009-02-20 07:54:24 51°13.693 2°55.836 -999 -999 -999 -999 -999
2009-02-20 07:54:29 51°13.694 2°55.829 -999 -999 -999 -999 -999
2009-02-20 07:54:34 51°13.695 2°55.821 -999 -999 -999 -999 -999
2009-02-20 07:54:39 51°13.696 2°55.814 -999 -999 -999 -999 -999
2009-02-20 07:54:44 51°13.697 2°55.806 -999 -999 -999 -999 -999
2009-02-20 07:54:49 51°13.698 2°55.799 -999 -999 -999 -999 -999
2009-02-20 07:54:54 51°13.698 2°55.791 -999 -999 -999 -999 -999
2009-02-20 07:54:59 51°13.698 2°55.784 -999 -999 -999 -999 -999
2009-02-20 07:55:04 51°13.699 2°55.778 -999 -999 -999 -999 -999
2009-02-20 07:55:09 51°13.699 2°55.771 -999 -999 -999 -999 -999
2009-02-20 07:55:14 51°13.699 2°55.765 -999 -999 -999 -999 -999
2009-02-20 07:55:19 51°13.699 2°55.759 -999 -999 -999 -999 -999
2009-02-20 07:55:24 51°13.698 2°55.754 -999 -999 -999 -999 -999
2009-02-20 07:55:28 51°13.698 2°55.749 -999 -999 -999 -999 -999
2009-02-20 07:55:33 51°13.698 2°55.745 -999 -999 -999 -999 -999
2009-02-20 07:55:39 51°13.698 2°55.741 -999 -999 -999 -999 -999
2009-02-20 07:55:44 51°13.698 2°55.739 -999 -999 -999 -999 -999
2009-02-20 07:55:49 51°13.698 2°55.738 -999 -999 -999 -999 -999
2009-02-20 07:55:54 51°13.698 2°55.738 -999 -999 -999 -999 -999
2009-02-20 07:55:59 51°13.698 2°55.738 -999 -999 -999 -999 -999
2009-02-20 07:56:04 51°13.699 2°55.739 -999 -999 -999 -999 -999
2009-02-20 07:56:09 51°13.699 2°55.74 -999 -999 -999 -999 -999
2009-02-20 07:56:13 51°13.7 2°55.741 -999 -999 -999 -999 -999
2009-02-20 07:56:19 51°13.701 2°55.743 -999 -999 -999 -999 -999
2009-02-20 07:56:24 51°13.702 2°55.744 -999 -999 -999 -999 -999
2009-02-20 07:56:29 51°13.704 2°55.746 -999 -999 -999 -999 -999
2009-02-20 07:56:33 51°13.704 2°55.746 -999 -999 -999 -999 -999
2009-02-20 07:56:39 51°13.705 2°55.747 -999 -999 -999 -999 -999
2009-02-20 07:56:44 51°13.705 2°55.748 -999 -999 -999 -999 -999
2009-02-20 07:56:48 51°13.704 2°55.747 -999 -999 -999 -999 -999
2009-02-20 07:56:54 51°13.703 2°55.746 -999 -999 -999 -999 -999
2009-02-20 07:56:59 51°13.701 2°55.745 -999 -999 -999 -999 -999
2009-02-20 07:57:04 51°13.699 2°55.744 -999 -999 -999 -999 -999
2009-02-20 07:57:08 51°13.698 2°55.743 -999 -999 -999 -999 -999
2009-02-20 07:57:14 51°13.696 2°55.742 -999 -999 -999 -999 -999
2009-02-20 07:57:19 51°13.694 2°55.741 -999 -999 -999 -999 -999
2009-02-20 07:57:24 51°13.693 2°55.741 -999 -999 -999 -999 -999
2009-02-20 07:57:29 51°13.693 2°55.74 -999 -999 -999 -999 -999
2009-02-20 07:57:33 51°13.694 2°55.741 -999 -999 -999 -999 -999
2009-02-20 07:57:39 51°13.696 2°55.74 -999 -999 -999 -999 -999
2009-02-20 07:57:44 51°13.698 2°55.74 -999 -999 -999 -999 -999
2009-02-20 07:57:49 51°13.701 2°55.738 -999 -999 -999 -999 -999
2009-02-20 07:57:53 51°13.704 2°55.737 -999 -999 -999 -999 -999
2009-02-20 07:57:59 51°13.708 2°55.734 -999 -999 -999 -999 -999
2009-02-20 07:58:04 51°13.712 2°55.731 -999 -999 -999 -999 -999
2009-02-20 07:58:08 51°13.716 2°55.728 -999 -999 -999 -999 -999
2009-02-20 07:58:13 51°13.722 2°55.723 -999 -999 -999 -999 -999
2009-02-20 07:58:19 51°13.729 2°55.716 -999 -999 -999 -999 -999
2009-02-20 07:58:24 51°13.735 2°55.71 -999 -999 -999 -999 -999
2009-02-20 07:58:29 51°13.742 2°55.704 -999 -999 -999 -999 -999
2009-02-20 07:58:33 51°13.747 2°55.699 -999 -999 -999 -999 -999
2009-02-20 07:58:39 51°13.756 2°55.692 -999 -999 -999 -999 -999
2009-02-20 07:58:44 51°13.764 2°55.685 -999 -999 -999 -999 -999
2009-02-20 07:58:49 51°13.772 2°55.679 -999 -999 -999 -999 -999
2009-02-20 07:58:54 51°13.78 2°55.672 -999 -999 -999 -999 -999
2009-02-20 07:58:59 51°13.788 2°55.665 -999 -999 -999 -999 -999
2009-02-20 07:59:04 51°13.797 2°55.659 -999 -999 -999 -999 -999
2009-02-20 07:59:08 51°13.803 2°55.653 -999 -999 -999 -999 -999
2009-02-20 07:59:14 51°13.814 2°55.645 -999 -999 -999 -999 -999
2009-02-20 07:59:19 51°13.822 2°55.638 -999 -999 -999 -999 -999
2009-02-20 07:59:24 51°13.831 2°55.631 -999 -999 -999 -999 -999
2009-02-20 07:59:28 51°13.838 2°55.626 -999 -999 -999 -999 -999
2009-02-20 07:59:33 51°13.848 2°55.619 -999 -999 -999 -999 -999
2009-02-20 07:59:39 51°13.859 2°55.611 -999 -999 -999 -999 -999
2009-02-20 07:59:44 51°13.869 2°55.605 -999 -999 -999 -999 -999
2009-02-20 07:59:48 51°13.876 2°55.6 -999 -999 -999 -999 -999
2009-02-20 07:59:53 51°13.886 2°55.595 -999 -999 -999 -999 -999
2009-02-20 07:59:59 51°13.898 2°55.587 -999 -999 -999 -999 -999
2009-02-20 08:00:04 51°13.908 2°55.581 -999 -999 -999 -999 -999
2009-02-20 08:00:08 51°13.915 2°55.575 -999 -999 -999 -999 -999
2009-02-20 08:00:13 51°13.925 2°55.569 -999 -999 -999 -999 -999
2009-02-20 08:00:18 51°13.935 2°55.561 -999 -999 -999 -999 -999
2009-02-20 08:00:24 51°13.947 2°55.553 -999 -999 -999 -999 -999
2009-02-20 08:00:29 51°13.957 2°55.546 -999 -999 -999 -999 -999
2009-02-20 08:00:33 51°13.965 2°55.54 -999 -999 -999 -999 -999
2009-02-20 08:00:39 51°13.977 2°55.532 -999 -999 -999 -999 -999
2009-02-20 08:00:44 51°13.987 2°55.525 -999 -999 -999 -999 -999
2009-02-20 08:00:49 51°13.998 2°55.518 -999 -999 -999 -999 -999
2009-02-20 08:00:54 51°14.008 2°55.511 -999 -999 -999 -999 -999
2009-02-20 08:00:59 51°14.019 2°55.504 -999 -999 -999 -999 -999
2009-02-20 08:01:04 51°14.029 2°55.497 -999 -999 -999 -999 -999
2009-02-20 08:01:09 51°14.04 2°55.49 -999 -999 -999 -999 -999
2009-02-20 08:01:13 51°14.048 2°55.484 -999 -999 -999 -999 -999
2009-02-20 08:01:19 51°14.061 2°55.475 -999 -999 -999 -999 -999
2009-02-20 08:01:24 51°14.071 2°55.467 -999 -999 -999 -999 -999
2009-02-20 08:01:28 51°14.079 2°55.461 -999 -999 -999 -999 -999
2009-02-20 08:01:34 51°14.092 2°55.452 -999 -999 -999 -999 -999
2009-02-20 08:01:39 51°14.103 2°55.445 -999 -999 -999 -999 -999
2009-02-20 08:01:44 51°14.114 2°55.437 -999 -999 -999 -999 -999
2009-02-20 08:01:48 51°14.122 2°55.431 -999 -999 -999 -999 -999
2009-02-20 08:01:53 51°14.133 2°55.423 -999 -999 -999 -999 -999
2009-02-20 08:01:59 51°14.146 2°55.413 -999 -999 -999 -999 -999
2009-02-20 08:02:04 51°14.156 2°55.404 -999 -999 -999 -999 -999
2009-02-20 08:02:08 51°14.165 2°55.397 -999 -999 -999 -999 -999
2009-02-20 08:02:13 51°14.175 2°55.387 -999 -999 -999 -999 -999
2009-02-20 08:02:19 51°14.187 2°55.374 -999 -999 -999 -999 -999
2009-02-20 08:02:24 51°14.196 2°55.362 -999 -999 -999 -999 -999
2009-02-20 08:02:29 51°14.206 2°55.351 -999 -999 -999 -999 -999
2009-02-20 08:02:33 51°14.213 2°55.341 -999 -999 -999 -999 -999
2009-02-20 08:02:39 51°14.225 2°55.327 -999 -999 -999 -999 -999
2009-02-20 08:02:44 51°14.234 2°55.313 -999 -999 -999 -999 -999
2009-02-20 08:02:49 51°14.243 2°55.299 -999 -999 -999 -999 -999
2009-02-20 08:02:53 51°14.249 2°55.288 -999 -999 -999 -999 -999
2009-02-20 08:02:59 51°14.26 2°55.271 -999 -999 -999 -999 -999
2009-02-20 08:03:04 51°14.268 2°55.255 -999 -999 -999 -999 -999
2009-02-20 08:03:09 51°14.277 2°55.239 -999 -999 -999 -999 -999
2009-02-20 08:03:13 51°14.283 2°55.226 -999 -999 -999 -999 -999
2009-02-20 08:03:19 51°14.293 2°55.205 -999 -999 -999 -999 -999
2009-02-20 08:03:24 51°14.302 2°55.187 -999 -999 -999 -999 -999
2009-02-20 08:03:29 51°14.312 2°55.17 -999 -999 -999 -999 -999
2009-02-20 08:03:33 51°14.319 2°55.156 -999 -999 -999 -999 -999
2009-02-20 08:03:39 51°14.331 2°55.136 -999 -999 -999 -999 -999
2009-02-20 08:03:44 51°14.34 2°55.117 -999 -999 -999 -999 -999
2009-02-20 08:03:48 51°14.349 2°55.103 -999 -999 -999 -999 -999
2009-02-20 08:03:54 51°14.359 2°55.078 -999 -999 -999 -999 -999
2009-02-20 08:03:59 51°14.369 2°55.059 -999 -999 -999 -999 -999
2009-02-20 08:04:04 51°14.378 2°55.039 -999 -999 -999 -999 -999
2009-02-20 08:04:08 51°14.387 2°55.024 -999 -999 -999 -999 -999
2009-02-20 08:04:13 51°14.397 2°55.004 -999 -999 -999 -999 -999
2009-02-20 08:04:19 51°14.41 2°54.981 -999 -999 -999 -999 -999
2009-02-20 08:04:24 51°14.419 2°54.961 -999 -999 -999 -999 -999
2009-02-20 08:04:28 51°14.427 2°54.945 -999 -999 -999 -999 -999
2009-02-20 08:04:33 51°14.437 2°54.924 -999 -999 -999 -999 -999
2009-02-20 08:04:39 51°14.449 2°54.899 -999 -999 -999 -999 -999
2009-02-20 08:04:44 51°14.458 2°54.878 -999 -999 -999 -999 -999
2009-02-20 08:04:49 51°14.468 2°54.857 -999 -999 -999 -999 -999
2009-02-20 08:04:53 51°14.476 2°54.841 -999 -999 -999 -999 -999
2009-02-20 08:04:59 51°14.488 2°54.816 -999 -999 -999 -999 -999
2009-02-20 08:05:04 51°14.5 2°54.797 -999 -999 -999 -999 -999
2009-02-20 08:05:09 51°14.511 2°54.779 -999 -999 -999 -999 -999
2009-02-20 08:05:13 51°14.521 2°54.765 -999 -999 -999 -999 -999
2009-02-20 08:05:19 51°14.536 2°54.745 -999 -999 -999 -999 -999
2009-02-20 08:05:24 51°14.55 2°54.729 -999 -999 -999 -999 -999
2009-02-20 08:05:29 51°14.563 2°54.714 -999 -999 -999 -999 -999
2009-02-20 08:05:33 51°14.575 2°54.703 -999 -999 -999 -999 -999
2009-02-20 08:05:39 51°14.592 2°54.687 -999 -999 -999 -999 -999
2009-02-20 08:05:44 51°14.607 2°54.675 -999 -999 -999 -999 -999
2009-02-20 08:05:49 51°14.622 2°54.663 -999 -999 -999 -999 -999
2009-02-20 08:05:54 51°14.637 2°54.652 -999 -999 -999 -999 -999
2009-02-20 08:05:59 51°14.653 2°54.641 -999 -999 -999 -999 -999
2009-02-20 08:06:04 51°14.669 2°54.631 -999 -999 -999 -999 -999
2009-02-20 08:06:08 51°14.681 2°54.623 -999 -999 -999 -999 -999
2009-02-20 08:06:14 51°14.7 2°54.611 -999 -999 -999 -999 -999
2009-02-20 08:06:19 51°14.716 2°54.601 -999 -999 -999 -999 -999
2009-02-20 08:06:24 51°14.732 2°54.591 -999 -999 -999 -999 -999
2009-02-20 08:06:28 51°14.745 2°54.584 -999 -999 -999 -999 -999
2009-02-20 08:06:33 51°14.761 2°54.574 -999 -999 -999 -999 -999
2009-02-20 08:06:39 51°14.78 2°54.562 -999 -999 -999 -999 -999
2009-02-20 08:06:44 51°14.796 2°54.552 -999 -999 -999 -999 -999
2009-02-20 08:06:48 51°14.808 2°54.544 -999 -999 -999 -999 -999
2009-02-20 08:06:53 51°14.824 2°54.534 -999 -999 -999 -999 -999
2009-02-20 08:06:59 51°14.842 2°54.521 -999 -999 -999 -999 -999
2009-02-20 08:07:04 51°14.858 2°54.511 -999 -999 -999 -999 -999
2009-02-20 08:07:09 51°14.874 2°54.501 -999 -999 -999 -999 -999
2009-02-20 08:07:13 51°14.887 2°54.493 -999 -999 -999 -999 -999
2009-02-20 08:07:19 51°14.906 2°54.481 -999 -999 -999 -999 -999
2009-02-20 08:07:24 51°14.922 2°54.471 -999 -999 -999 -999 -999
2009-02-20 08:07:28 51°14.934 2°54.463 -999 -999 -999 -999 -999
2009-02-20 08:07:33 51°14.95 2°54.453 -999 -999 -999 -999 -999
2009-02-20 08:07:39 51°14.969 2°54.441 -999 -999 -999 -999 -999
2009-02-20 08:07:44 51°14.985 2°54.431 -999 -999 -999 -999 -999
2009-02-20 08:07:49 51°15.001 2°54.42 -999 -999 -999 -999 -999
2009-02-20 08:07:53 51°15.014 2°54.413 -999 -999 -999 -999 -999
2009-02-20 08:07:59 51°15.033 2°54.4 -999 -999 -999 -999 -999
2009-02-20 08:08:04 51°15.049 2°54.389 -999 -999 -999 -999 -999
2009-02-20 08:08:09 51°15.064 2°54.378 -999 -999 -999 -999 -999
2009-02-20 08:08:14 51°15.079 2°54.366 -999 -999 -999 -999 -999
2009-02-20 08:08:19 51°15.094 2°54.353 -999 -999 -999 -999 -999
2009-02-20 08:08:24 51°15.109 2°54.341 -999 -999 -999 -999 -999
2009-02-20 08:08:28 51°15.121 2°54.331 -999 -999 -999 -999 -999
2009-02-20 08:08:34 51°15.139 2°54.315 -999 -999 -999 -999 -999
2009-02-20 08:08:39 51°15.154 2°54.302 -999 -999 -999 -999 -999
2009-02-20 08:08:44 51°15.169 2°54.289 -999 -999 -999 -999 -999
2009-02-20 08:08:48 51°15.181 2°54.279 -999 -999 -999 -999 -999
2009-02-20 08:08:53 51°15.196 2°54.266 -999 -999 -999 -999 -999
2009-02-20 08:08:59 51°15.213 2°54.249 -999 -999 -999 -999 -999
2009-02-20 08:09:04 51°15.228 2°54.236 -999 -999 -999 -999 -999
2009-02-20 08:09:09 51°15.243 2°54.223 -999 -999 -999 -999 -999
2009-02-20 08:09:13 51°15.255 2°54.213 -999 -999 -999 -999 -999
2009-02-20 08:09:19 51°15.272 2°54.198 -999 -999 -999 -999 -999
2009-02-20 08:09:24 51°15.287 2°54.185 -999 -999 -999 -999 -999
2009-02-20 08:09:28 51°15.299 2°54.175 -999 -999 -999 -999 -999
2009-02-20 08:09:33 51°15.314 2°54.162 -999 -999 -999 -999 -999
2009-02-20 08:09:39 51°15.332 2°54.148 -999 -999 -999 -999 -999
2009-02-20 08:09:44 51°15.347 2°54.135 -999 -999 -999 -999 -999
2009-02-20 08:09:49 51°15.362 2°54.124 -999 -999 -999 -999 -999
2009-02-20 08:09:53 51°15.374 2°54.114 -999 -999 -999 -999 -999
2009-02-20 08:09:59 51°15.392 2°54.1 -999 -999 -999 -999 -999
2009-02-20 08:10:04 51°15.407 2°54.088 -999 -999 -999 -999 -999
2009-02-20 08:10:09 51°15.423 2°54.076 -999 -999 -999 -999 -999
2009-02-20 08:10:14 51°15.438 2°54.064 -999 -999 -999 -999 -999
2009-02-20 08:10:19 51°15.453 2°54.052 -999 -999 -999 -999 -999
2009-02-20 08:10:24 51°15.468 2°54.04 -999 -999 -999 -999 -999
2009-02-20 08:10:28 51°15.48 2°54.03 -999 -999 -999 -999 -999
2009-02-20 08:10:34 51°15.498 2°54.016 -999 -999 -999 -999 -999
2009-02-20 08:10:39 51°15.513 2°54.004 -999 -999 -999 -999 -999
2009-02-20 08:10:44 51°15.528 2°53.992 -999 -999 -999 -999 -999
2009-02-20 08:10:48 51°15.54 2°53.982 -999 -999 -999 -999 -999
2009-02-20 08:10:54 51°15.558 2°53.967 -999 -999 -999 -999 -999
2009-02-20 08:10:59 51°15.573 2°53.955 -999 -999 -999 -999 -999
2009-02-20 08:11:04 51°15.588 2°53.942 -999 -999 -999 -999 -999
2009-02-20 08:11:09 51°15.603 2°53.93 -999 -999 -999 -999 -999
2009-02-20 08:11:13 51°15.615 2°53.92 -999 -999 -999 -999 -999
2009-02-20 08:11:19 51°15.633 2°53.906 -999 -999 -999 -999 -999
2009-02-20 08:11:24 51°15.648 2°53.893 -999 -999 -999 -999 -999
2009-02-20 08:11:28 51°15.66 2°53.883 -999 -999 -999 -999 -999
2009-02-20 08:11:33 51°15.675 2°53.871 -999 -999 -999 -999 -999
2009-02-20 08:11:39 51°15.693 2°53.855 -999 -999 -999 -999 -999
2009-02-20 08:11:44 51°15.708 2°53.842 -999 -999 -999 -999 -999
2009-02-20 08:11:48 51°15.72 2°53.832 -999 -999 -999 -999 -999
2009-02-20 08:11:53 51°15.735 2°53.819 -999 -999 -999 -999 -999
2009-02-20 08:11:58 51°15.749 2°53.806 -999 -999 -999 -999 -999
2009-02-20 08:12:04 51°15.767 2°53.791 -999 -999 -999 -999 -999
2009-02-20 08:12:09 51°15.782 2°53.778 -999 -999 -999 -999 -999
2009-02-20 08:12:13 51°15.794 2°53.769 -999 -999 -999 -999 -999
2009-02-20 08:12:19 51°15.813 2°53.754 -999 -999 -999 -999 -999
2009-02-20 08:12:24 51°15.828 2°53.742 -999 -999 -999 -999 -999
2009-02-20 08:12:29 51°15.843 2°53.729 -999 -999 -999 -999 -999
2009-02-20 08:12:34 51°15.857 2°53.717 -999 -999 -999 -999 -999
2009-02-20 08:12:39 51°15.872 2°53.703 -999 -999 -999 -999 -999
2009-02-20 08:12:44 51°15.887 2°53.691 -999 -999 -999 -999 -999
2009-02-20 08:12:48 51°15.899 2°53.68 -999 -999 -999 -999 -999
2009-02-20 08:12:54 51°15.917 2°53.665 -999 -999 -999 -999 -999
2009-02-20 08:12:59 51°15.931 2°53.652 -999 -999 -999 -999 -999
2009-02-20 08:13:04 51°15.946 2°53.639 -999 -999 -999 -999 -999
2009-02-20 08:13:08 51°15.958 2°53.629 -999 -999 -999 -999 -999
2009-02-20 08:13:14 51°15.975 2°53.613 -999 -999 -999 -999 -999
2009-02-20 08:13:19 51°15.99 2°53.6 -999 -999 -999 -999 -999
2009-02-20 08:13:24 51°16.005 2°53.588 -999 -999 -999 -999 -999
2009-02-20 08:13:28 51°16.017 2°53.577 -999 -999 -999 -999 -999
2009-02-20 08:13:33 51°16.032 2°53.564 -999 -999 -999 -999 -999
2009-02-20 08:13:39 51°16.05 2°53.549 -999 -999 -999 -999 -999
2009-02-20 08:13:44 51°16.064 2°53.536 -999 -999 -999 -999 -999
2009-02-20 08:13:48 51°16.076 2°53.526 -999 -999 -999 -999 -999
2009-02-20 08:13:53 51°16.091 2°53.513 -999 -999 -999 -999 -999
2009-02-20 08:13:58 51°16.106 2°53.5 -999 -999 -999 -999 -999
2009-02-20 08:14:04 51°16.123 2°53.484 -999 -999 -999 -999 -999
2009-02-20 08:14:09 51°16.138 2°53.472 -999 -999 -999 -999 -999
2009-02-20 08:14:13 51°16.15 2°53.461 -999 -999 -999 -999 -999
2009-02-20 08:14:19 51°16.168 2°53.447 -999 -999 -999 -999 -999
2009-02-20 08:14:24 51°16.183 2°53.434 -999 -999 -999 -999 -999
2009-02-20 08:14:29 51°16.198 2°53.422 -999 -999 -999 -999 -999
2009-02-20 08:14:34 51°16.213 2°53.41 -999 -999 -999 -999 -999
2009-02-20 08:14:39 51°16.228 2°53.398 -999 -999 -999 -999 -999
2009-02-20 08:14:44 51°16.243 2°53.387 -999 -999 -999 -999 -999
2009-02-20 08:14:49 51°16.259 2°53.376 -999 -999 -999 -999 -999
2009-02-20 08:14:54 51°16.274 2°53.364 -999 -999 -999 -999 -999
2009-02-20 08:14:59 51°16.29 2°53.352 -999 -999 -999 -999 -999
2009-02-20 08:15:04 51°16.305 2°53.34 -999 -999 -999 -999 -999
2009-02-20 08:15:08 51°16.317 2°53.331 -999 -999 -999 -999 -999
2009-02-20 08:15:14 51°16.335 2°53.316 -999 -999 -999 -999 -999
2009-02-20 08:15:19 51°16.35 2°53.304 -999 -999 -999 -999 -999
2009-02-20 08:15:24 51°16.365 2°53.292 -999 -999 -999 -999 -999
2009-02-20 08:15:28 51°16.377 2°53.281 -999 -999 -999 -999 -999
2009-02-20 08:15:34 51°16.395 2°53.266 -999 -999 -999 -999 -999
2009-02-20 08:15:39 51°16.41 2°53.253 -999 -999 -999 -999 -999
2009-02-20 08:15:44 51°16.424 2°53.24 -999 -999 -999 -999 -999
2009-02-20 08:15:48 51°16.435 2°53.228 -999 -999 -999 -999 -999
2009-02-20 08:15:53 51°16.45 2°53.214 -999 -999 -999 -999 -999
2009-02-20 08:15:58 51°16.464 2°53.201 -999 -999 -999 -999 -999
2009-02-20 08:16:04 51°16.482 2°53.185 -999 -999 -999 -999 -999
2009-02-20 08:16:08 51°16.493 2°53.175 -999 -999 -999 -999 -999
2009-02-20 08:16:13 51°16.508 2°53.162 -999 -999 -999 -999 -999
2009-02-20 08:16:19 51°16.525 2°53.147 -999 -999 -999 -999 -999
2009-02-20 08:16:24 51°16.54 2°53.134 -999 -999 -999 -999 -999
2009-02-20 08:16:29 51°16.554 2°53.121 -999 -999 -999 -999 -999
2009-02-20 08:16:34 51°16.569 2°53.108 -999 -999 -999 -999 -999
2009-02-20 08:16:39 51°16.583 2°53.095 -999 -999 -999 -999 -999
2009-02-20 08:16:44 51°16.598 2°53.082 -999 -999 -999 -999 -999
2009-02-20 08:16:49 51°16.612 2°53.07 -999 -999 -999 -999 -999
2009-02-20 08:16:54 51°16.627 2°53.058 -999 -999 -999 -999 -999
2009-02-20 08:16:59 51°16.642 2°53.046 -999 -999 -999 -999 -999
2009-02-20 08:17:04 51°16.657 2°53.033 -999 -999 -999 -999 -999
2009-02-20 08:17:09 51°16.671 2°53.02 -999 -999 -999 -999 -999
2009-02-20 08:17:13 51°16.683 2°53.01 -999 -999 -999 -999 -999
2009-02-20 08:17:19 51°16.701 2°52.995 -999 -999 -999 -999 -999
2009-02-20 08:17:24 51°16.716 2°52.983 -999 -999 -999 -999 -999
2009-02-20 08:17:28 51°16.728 2°52.973 -999 -999 -999 -999 -999
2009-02-20 08:17:34 51°16.745 2°52.958 -999 -999 -999 -999 -999
2009-02-20 08:17:39 51°16.76 2°52.946 -999 -999 -999 -999 -999
2009-02-20 08:17:44 51°16.775 2°52.933 -999 -999 -999 -999 -999
2009-02-20 08:17:48 51°16.787 2°52.923 -999 -999 -999 -999 -999
2009-02-20 08:17:54 51°16.804 2°52.907 -999 -999 -999 -999 -999
2009-02-20 08:17:59 51°16.818 2°52.895 -999 -999 -999 -999 -999
2009-02-20 08:18:04 51°16.833 2°52.882 -999 -999 -999 -999 -999
2009-02-20 08:18:08 51°16.844 2°52.871 -999 -999 -999 -999 -999
2009-02-20 08:18:13 51°16.858 2°52.858 -999 -999 -999 -999 -999
2009-02-20 08:18:18 51°16.873 2°52.846 -999 -999 -999 -999 -999
2009-02-20 08:18:24 51°16.89 2°52.83 -999 -999 -999 -999 -999
2009-02-20 08:18:29 51°16.905 2°52.817 -999 -999 -999 -999 -999
2009-02-20 08:18:33 51°16.916 2°52.807 -999 -999 -999 -999 -999
2009-02-20 08:18:39 51°16.934 2°52.791 -999 -999 -999 -999 -999
2009-02-20 08:18:44 51°16.948 2°52.779 -999 -999 -999 -999 -999
2009-02-20 08:18:49 51°16.963 2°52.765 -999 -999 -999 -999 -999
2009-02-20 08:18:54 51°16.977 2°52.753 -999 -999 -999 -999 -999
2009-02-20 08:18:59 51°16.992 2°52.74 -999 -999 -999 -999 -999
2009-02-20 08:19:04 51°17.007 2°52.727 -999 -999 -999 -999 -999
2009-02-20 08:19:09 51°17.021 2°52.713 -999 -999 -999 -999 -999
2009-02-20 08:19:13 51°17.032 2°52.703 -999 -999 -999 -999 -999
2009-02-20 08:19:19 51°17.05 2°52.687 -999 -999 -999 -999 -999
2009-02-20 08:19:24 51°17.064 2°52.674 -999 -999 -999 -999 -999
2009-02-20 08:19:29 51°17.079 2°52.661 -999 -999 -999 -999 -999
2009-02-20 08:19:34 51°17.093 2°52.647 -999 -999 -999 -999 -999
2009-02-20 08:19:39 51°17.108 2°52.634 -999 -999 -999 -999 -999
2009-02-20 08:19:44 51°17.122 2°52.62 -999 -999 -999 -999 -999
2009-02-20 08:19:48 51°17.133 2°52.609 -999 -999 -999 -999 -999
2009-02-20 08:19:54 51°17.15 2°52.592 -999 -999 -999 -999 -999
2009-02-20 08:19:59 51°17.164 2°52.577 -999 -999 -999 -999 -999
2009-02-20 08:20:04 51°17.178 2°52.562 -999 -999 -999 -999 -999
2009-02-20 08:20:08 51°17.188 2°52.549 -999 -999 -999 -999 -999
2009-02-20 08:20:13 51°17.202 2°52.534 -999 -999 -999 -999 -999
2009-02-20 08:20:19 51°17.218 2°52.515 -999 -999 -999 -999 -999
2009-02-20 08:20:24 51°17.231 2°52.499 -999 -999 -999 -999 -999
2009-02-20 08:20:29 51°17.244 2°52.483 -999 -999 -999 -999 -999
2009-02-20 08:20:33 51°17.255 2°52.47 -999 -999 -999 -999 -999
2009-02-20 08:20:39 51°17.271 2°52.45 -999 -999 -999 -999 -999
2009-02-20 08:20:44 51°17.284 2°52.433 -999 -999 -999 -999 -999
2009-02-20 08:20:49 51°17.297 2°52.416 -999 -999 -999 -999 -999
2009-02-20 08:20:53 51°17.307 2°52.402 -999 -999 -999 -999 -999
2009-02-20 08:20:59 51°17.322 2°52.381 -999 -999 -999 -999 -999
2009-02-20 08:21:04 51°17.335 2°52.364 -999 -999 -999 -999 -999
2009-02-20 08:21:09 51°17.347 2°52.347 -999 -999 -999 -999 -999
2009-02-20 08:21:13 51°17.357 2°52.332 -999 -999 -999 -999 -999
2009-02-20 08:21:19 51°17.372 2°52.311 -999 -999 -999 -999 -999
2009-02-20 08:21:24 51°17.385 2°52.294 -999 -999 -999 -999 -999
2009-02-20 08:21:29 51°17.397 2°52.276 -999 -999 -999 -999 -999
2009-02-20 08:21:33 51°17.407 2°52.262 -999 -999 -999 -999 -999
2009-02-20 08:21:39 51°17.422 2°52.24 -999 -999 -999 -999 -999
2009-02-20 08:21:44 51°17.435 2°52.223 -999 -999 -999 -999 -999
2009-02-20 08:21:49 51°17.447 2°52.205 -999 -999 -999 -999 -999
2009-02-20 08:21:54 51°17.46 2°52.187 -999 -999 -999 -999 -999
2009-02-20 08:21:59 51°17.472 2°52.17 -999 -999 -999 -999 -999
2009-02-20 08:22:04 51°17.485 2°52.152 -999 -999 -999 -999 -999
2009-02-20 08:22:08 51°17.495 2°52.138 -999 -999 -999 -999 -999
2009-02-20 08:22:14 51°17.51 2°52.116 -999 -999 -999 -999 -999
2009-02-20 08:22:19 51°17.522 2°52.098 -999 -999 -999 -999 -999
2009-02-20 08:22:24 51°17.534 2°52.08 -999 -999 -999 -999 -999
2009-02-20 08:22:28 51°17.544 2°52.066 -999 -999 -999 -999 -999
2009-02-20 08:22:34 51°17.559 2°52.044 -999 -999 -999 -999 -999
2009-02-20 08:22:39 51°17.571 2°52.026 -999 -999 -999 -999 -999
2009-02-20 08:22:44 51°17.584 2°52.008 -999 -999 -999 -999 -999
2009-02-20 08:22:48 51°17.594 2°51.994 -999 -999 -999 -999 -999
2009-02-20 08:22:53 51°17.606 2°51.976 -999 -999 -999 -999 -999
2009-02-20 08:22:58 51°17.619 2°51.958 -999 -999 -999 -999 -999
2009-02-20 08:23:04 51°17.633 2°51.936 -999 -999 -999 -999 -999
2009-02-20 08:23:08 51°17.643 2°51.921 -999 -999 -999 -999 -999
2009-02-20 08:23:13 51°17.655 2°51.903 -999 -999 -999 -999 -999
2009-02-20 08:23:18 51°17.668 2°51.885 -999 -999 -999 -999 -999
2009-02-20 08:23:24 51°17.682 2°51.863 -999 -999 -999 -999 -999
2009-02-20 08:23:28 51°17.692 2°51.849 -999 -999 -999 -999 -999
2009-02-20 08:23:33 51°17.704 2°51.83 -999 -999 -999 -999 -999
2009-02-20 08:23:38 51°17.717 2°51.812 -999 -999 -999 -999 -999
2009-02-20 08:23:44 51°17.731 2°51.79 -999 -999 -999 -999 -999
2009-02-20 08:23:48 51°17.741 2°51.775 -999 -999 -999 -999 -999
2009-02-20 08:23:53 51°17.754 2°51.757 -999 -999 -999 -999 -999
2009-02-20 08:23:58 51°17.766 2°51.739 -999 -999 -999 -999 -999
2009-02-20 08:24:03 51°17.778 2°51.72 -999 -999 -999 -999 -999
2009-02-20 08:24:08 51°17.79 2°51.702 -999 -999 -999 -999 -999
2009-02-20 08:24:13 51°17.803 2°51.684 -999 -999 -999 -999 -999
2009-02-20 08:24:18 51°17.815 2°51.666 -999 -999 -999 -999 -999
2009-02-20 08:24:23 51°17.828 2°51.648 -999 -999 -999 -999 -999
2009-02-20 08:24:28 51°17.84 2°51.63 -999 -999 -999 -999 -999
2009-02-20 08:24:33 51°17.853 2°51.612 -999 -999 -999 -999 -999
2009-02-20 08:24:38 51°17.865 2°51.594 -999 -999 -999 -999 -999
2009-02-20 08:24:43 51°17.877 2°51.576 -999 -999 -999 -999 -999
2009-02-20 08:24:48 51°17.889 2°51.558 -999 -999 -999 -999 -999
2009-02-20 08:24:53 51°17.902 2°51.54 -999 -999 -999 -999 -999
2009-02-20 08:24:58 51°17.914 2°51.522 -999 -999 -999 -999 -999
2009-02-20 08:25:03 51°17.926 2°51.503 -999 -999 -999 -999 -999
2009-02-20 08:25:08 51°17.939 2°51.486 -999 -999 -999 -999 -999
2009-02-20 08:25:13 51°17.951 2°51.467 -999 -999 -999 -999 -999
2009-02-20 08:25:18 51°17.964 2°51.449 -999 -999 -999 -999 -999
2009-02-20 08:25:24 51°17.978 2°51.428 -999 -999 -999 -999 -999
2009-02-20 08:25:28 51°17.988 2°51.413 -999 -999 -999 -999 -999
2009-02-20 08:25:33 51°18.001 2°51.395 -999 -999 -999 -999 -999
2009-02-20 08:25:38 51°18.013 2°51.377 -999 -999 -999 -999 -999
2009-02-20 08:25:44 51°18.028 2°51.355 -999 -999 -999 -999 -999
2009-02-20 08:25:48 51°18.038 2°51.341 -999 -999 -999 -999 -999
2009-02-20 08:25:53 51°18.05 2°51.323 -999 -999 -999 -999 -999
2009-02-20 08:25:58 51°18.063 2°51.305 -999 -999 -999 -999 -999
2009-02-20 08:26:04 51°18.077 2°51.283 -999 -999 -999 -999 -999
2009-02-20 08:26:08 51°18.087 2°51.269 -999 -999 -999 -999 -999
2009-02-20 08:26:13 51°18.1 2°51.25 -999 -999 -999 -999 -999
2009-02-20 08:26:18 51°18.112 2°51.232 -999 -999 -999 -999 -999
2009-02-20 08:26:23 51°18.124 2°51.214 -999 -999 -999 -999 -999
2009-02-20 08:26:28 51°18.137 2°51.196 -999 -999 -999 -999 -999
2009-02-20 08:26:33 51°18.149 2°51.178 -999 -999 -999 -999 -999
2009-02-20 08:26:38 51°18.161 2°51.159 -999 -999 -999 -999 -999
2009-02-20 08:26:43 51°18.173 2°51.141 -999 -999 -999 -999 -999
2009-02-20 08:26:48 51°18.186 2°51.123 -999 -999 -999 -999 -999
2009-02-20 08:26:53 51°18.198 2°51.104 -999 -999 -999 -999 -999
2009-02-20 08:26:58 51°18.21 2°51.086 -999 -999 -999 -999 -999
2009-02-20 08:27:04 51°18.225 2°51.064 -999 -999 -999 -999 -999
2009-02-20 08:27:08 51°18.235 2°51.049 -999 -999 -999 -999 -999
2009-02-20 08:27:13 51°18.247 2°51.031 -999 -999 -999 -999 -999
2009-02-20 08:27:18 51°18.259 2°51.012 -999 -999 -999 -999 -999
2009-02-20 08:27:23 51°18.271 2°50.994 -999 -999 -999 -999 -999
2009-02-20 08:27:28 51°18.283 2°50.975 -999 -999 -999 -999 -999
2009-02-20 08:27:34 51°18.297 2°50.952 -999 -999 -999 -999 -999
2009-02-20 08:27:39 51°18.309 2°50.934 -999 -999 -999 -999 -999
2009-02-20 08:27:44 51°18.321 2°50.914 -999 -999 -999 -999 -999
2009-02-20 08:27:49 51°18.333 2°50.895 -999 -999 -999 -999 -999
2009-02-20 08:27:54 51°18.344 2°50.875 -999 -999 -999 -999 -999
2009-02-20 08:27:59 51°18.356 2°50.856 -999 -999 -999 -999 -999
2009-02-20 08:28:04 51°18.367 2°50.837 -999 -999 -999 -999 -999
2009-02-20 08:28:09 51°18.379 2°50.818 -999 -999 -999 -999 -999
2009-02-20 08:28:14 51°18.391 2°50.799 -999 -999 -999 -999 -999
2009-02-20 08:28:19 51°18.402 2°50.78 -999 -999 -999 -999 -999
2009-02-20 08:28:24 51°18.414 2°50.76 -999 -999 -999 -999 -999
2009-02-20 08:28:29 51°18.426 2°50.742 -999 -999 -999 -999 -999
2009-02-20 08:28:34 51°18.438 2°50.723 -999 -999 -999 -999 -999
2009-02-20 08:28:39 51°18.45 2°50.704 -999 -999 -999 -999 -999
2009-02-20 08:28:44 51°18.462 2°50.685 -999 -999 -999 -999 -999
2009-02-20 08:28:49 51°18.474 2°50.667 -999 -999 -999 -999 -999
2009-02-20 08:28:53 51°18.484 2°50.651 -999 -999 -999 -999 -999
2009-02-20 08:28:59 51°18.499 2°50.629 -999 -999 -999 -999 -999
2009-02-20 08:29:04 51°18.511 2°50.61 -999 -999 -999 -999 -999
2009-02-20 08:29:09 51°18.523 2°50.591 -999 -999 -999 -999 -999
2009-02-20 08:29:13 51°18.533 2°50.576 -999 -999 -999 -999 -999
2009-02-20 08:29:19 51°18.547 2°50.554 -999 -999 -999 -999 -999
2009-02-20 08:29:24 51°18.559 2°50.535 -999 -999 -999 -999 -999
2009-02-20 08:29:29 51°18.572 2°50.516 -999 -999 -999 -999 -999
2009-02-20 08:29:34 51°18.584 2°50.497 -999 -999 -999 -999 -999
2009-02-20 08:29:39 51°18.596 2°50.478 -999 -999 -999 -999 -999
2009-02-20 08:29:44 51°18.608 2°50.46 -999 -999 -999 -999 -999
2009-02-20 08:29:49 51°18.62 2°50.441 -999 -999 -999 -999 -999
2009-02-20 08:29:54 51°18.633 2°50.423 -999 -999 -999 -999 -999
2009-02-20 08:29:58 51°18.642 2°50.408 -999 -999 -999 -999 -999
2009-02-20 08:30:04 51°18.658 2°50.386 -999 -999 -999 -999 -999
2009-02-20 08:30:09 51°18.67 2°50.368 -999 -999 -999 -999 -999
2009-02-20 08:30:14 51°18.683 2°50.35 -999 -999 -999 -999 -999
2009-02-20 08:30:18 51°18.693 2°50.336 -999 -999 -999 -999 -999
2009-02-20 08:30:24 51°18.709 2°50.315 -999 -999 -999 -999 -999
2009-02-20 08:30:29 51°18.722 2°50.297 -999 -999 -999 -999 -999
2009-02-20 08:30:34 51°18.735 2°50.28 -999 -999 -999 -999 -999
2009-02-20 08:30:38 51°18.745 2°50.265 -999 -999 -999 -999 -999
2009-02-20 08:30:44 51°18.761 2°50.244 -999 -999 -999 -999 -999
2009-02-20 08:30:49 51°18.774 2°50.227 -999 -999 -999 -999 -999
2009-02-20 08:30:54 51°18.787 2°50.209 -999 -999 -999 -999 -999
2009-02-20 08:30:59 51°18.8 2°50.191 -999 -999 -999 -999 -999
2009-02-20 08:31:04 51°18.813 2°50.174 -999 -999 -999 -999 -999
2009-02-20 08:31:09 51°18.826 2°50.156 -999 -999 -999 -999 -999
2009-02-20 08:31:14 51°18.839 2°50.138 -999 -999 -999 -999 -999
2009-02-20 08:31:19 51°18.851 2°50.12 -999 -999 -999 -999 -999
2009-02-20 08:31:24 51°18.863 2°50.101 -999 -999 -999 -999 -999
2009-02-20 08:31:28 51°18.873 2°50.087 -999 -999 -999 -999 -999
2009-02-20 08:31:33 51°18.885 2°50.068 -999 -999 -999 -999 -999
2009-02-20 08:31:38 51°18.898 2°50.049 -999 -999 -999 -999 -999
2009-02-20 08:31:43 51°18.91 2°50.03 -999 -999 -999 -999 -999
2009-02-20 08:31:49 51°18.924 2°50.008 -999 -999 -999 -999 -999
2009-02-20 08:31:53 51°18.934 2°49.993 -999 -999 -999 -999 -999
2009-02-20 08:31:58 51°18.946 2°49.974 -999 -999 -999 -999 -999
2009-02-20 08:32:03 51°18.958 2°49.955 -999 -999 -999 -999 -999
2009-02-20 08:32:09 51°18.972 2°49.932 -999 -999 -999 -999 -999
2009-02-20 08:32:13 51°18.982 2°49.917 -999 -999 -999 -999 -999
2009-02-20 08:32:18 51°18.994 2°49.899 -999 -999 -999 -999 -999
2009-02-20 08:32:24 51°19.008 2°49.876 -999 -999 -999 -999 -999
2009-02-20 08:32:29 51°19.02 2°49.857 -999 -999 -999 -999 -999
2009-02-20 08:32:33 51°19.029 2°49.843 -999 -999 -999 -999 -999
2009-02-20 08:32:38 51°19.041 2°49.824 -999 -999 -999 -999 -999
2009-02-20 08:32:44 51°19.056 2°49.802 -999 -999 -999 -999 -999
2009-02-20 08:32:49 51°19.068 2°49.784 -999 -999 -999 -999 -999
2009-02-20 08:32:53 51°19.078 2°49.77 -999 -999 -999 -999 -999
2009-02-20 08:32:58 51°19.09 2°49.752 -999 -999 -999 -999 -999
2009-02-20 08:33:03 51°19.103 2°49.734 -999 -999 -999 -999 -999
2009-02-20 08:33:09 51°19.118 2°49.713 -999 -999 -999 -999 -999
2009-02-20 08:33:13 51°19.128 2°49.699 -999 -999 -999 -999 -999
2009-02-20 08:33:18 51°19.141 2°49.682 -999 -999 -999 -999 -999
2009-02-20 08:33:23 51°19.154 2°49.664 -999 -999 -999 -999 -999
2009-02-20 08:33:29 51°19.169 2°49.644 -999 -999 -999 -999 -999
2009-02-20 08:33:34 51°19.182 2°49.626 -999 -999 -999 -999 -999
2009-02-20 08:33:38 51°19.192 2°49.612 -999 -999 -999 -999 -999
2009-02-20 08:33:44 51°19.207 2°49.591 -999 -999 -999 -999 -999
2009-02-20 08:33:49 51°19.22 2°49.573 -999 -999 -999 -999 -999
2009-02-20 08:33:53 51°19.23 2°49.559 -999 -999 -999 -999 -999
2009-02-20 08:33:58 51°19.242 2°49.541 -999 -999 -999 -999 -999
2009-02-20 08:34:04 51°19.257 2°49.519 -999 -999 -999 -999 -999
2009-02-20 08:34:09 51°19.269 2°49.501 -999 -999 -999 -999 -999
2009-02-20 08:34:13 51°19.279 2°49.487 -999 -999 -999 -999 -999
2009-02-20 08:34:18 51°19.292 2°49.469 -999 -999 -999 -999 -999
2009-02-20 08:34:24 51°19.307 2°49.448 -999 -999 -999 -999 -999
2009-02-20 08:34:29 51°19.319 2°49.43 -999 -999 -999 -999 -999
2009-02-20 08:34:33 51°19.328 2°49.415 -999 -999 -999 -999 -999
2009-02-20 08:34:38 51°19.341 2°49.397 -999 -999 -999 -999 -999
2009-02-20 08:34:44 51°19.355 2°49.374 -999 -999 -999 -999 -999
2009-02-20 08:34:49 51°19.367 2°49.356 -999 -999 -999 -999 -999
2009-02-20 08:34:53 51°19.377 2°49.341 -999 -999 -999 -999 -999
2009-02-20 08:34:58 51°19.389 2°49.324 -999 -999 -999 -999 -999
2009-02-20 08:35:04 51°19.404 2°49.302 -999 -999 -999 -999 -999
2009-02-20 08:35:09 51°19.416 2°49.284 -999 -999 -999 -999 -999
2009-02-20 08:35:14 51°19.429 2°49.266 -999 -999 -999 -999 -999
2009-02-20 08:35:18 51°19.439 2°49.252 -999 -999 -999 -999 -999
2009-02-20 08:35:23 51°19.451 2°49.234 -999 -999 -999 -999 -999
2009-02-20 08:35:29 51°19.466 2°49.212 -999 -999 -999 -999 -999
2009-02-20 08:35:33 51°19.476 2°49.198 -999 -999 -999 -999 -999
2009-02-20 08:35:38 51°19.489 2°49.18 -999 -999 -999 -999 -999
2009-02-20 08:35:43 51°19.502 2°49.163 -999 -999 -999 -999 -999
2009-02-20 08:35:49 51°19.516 2°49.141 -999 -999 -999 -999 -999
2009-02-20 08:35:54 51°19.529 2°49.124 -999 -999 -999 -999 -999
2009-02-20 08:35:58 51°19.539 2°49.11 -999 -999 -999 -999 -999
2009-02-20 08:36:04 51°19.555 2°49.089 -999 -999 -999 -999 -999
2009-02-20 08:36:09 51°19.567 2°49.071 -999 -999 -999 -999 -999
2009-02-20 08:36:13 51°19.577 2°49.056 -999 -999 -999 -999 -999
2009-02-20 08:36:18 51°19.589 2°49.039 -999 -999 -999 -999 -999
2009-02-20 08:36:24 51°19.604 2°49.017 -999 -999 -999 -999 -999
2009-02-20 08:36:29 51°19.617 2°48.999 -999 -999 -999 -999 -999
2009-02-20 08:36:33 51°19.627 2°48.985 -999 -999 -999 -999 -999
2009-02-20 08:36:38 51°19.639 2°48.967 -999 -999 -999 -999 -999
2009-02-20 08:36:44 51°19.654 2°48.946 -999 -999 -999 -999 -999
2009-02-20 08:36:49 51°19.667 2°48.928 -999 -999 -999 -999 -999
2009-02-20 08:36:53 51°19.677 2°48.914 -999 -999 -999 -999 -999
2009-02-20 08:36:58 51°19.689 2°48.896 -999 -999 -999 -999 -999
2009-02-20 08:37:04 51°19.704 2°48.875 -999 -999 -999 -999 -999
2009-02-20 08:37:09 51°19.717 2°48.857 -999 -999 -999 -999 -999
2009-02-20 08:37:13 51°19.727 2°48.843 -999 -999 -999 -999 -999
2009-02-20 08:37:18 51°19.74 2°48.825 -999 -999 -999 -999 -999
2009-02-20 08:37:24 51°19.755 2°48.803 -999 -999 -999 -999 -999
2009-02-20 08:37:29 51°19.767 2°48.785 -999 -999 -999 -999 -999
2009-02-20 08:37:33 51°19.777 2°48.77 -999 -999 -999 -999 -999
2009-02-20 08:37:38 51°19.789 2°48.751 -999 -999 -999 -999 -999
2009-02-20 08:37:43 51°19.801 2°48.733 -999 -999 -999 -999 -999
2009-02-20 08:37:49 51°19.815 2°48.71 -999 -999 -999 -999 -999
2009-02-20 08:37:54 51°19.827 2°48.692 -999 -999 -999 -999 -999
2009-02-20 08:37:58 51°19.837 2°48.677 -999 -999 -999 -999 -999
2009-02-20 08:38:04 51°19.852 2°48.655 -999 -999 -999 -999 -999
2009-02-20 08:38:09 51°19.865 2°48.637 -999 -999 -999 -999 -999
2009-02-20 08:38:14 51°19.877 2°48.619 -999 -999 -999 -999 -999
2009-02-20 08:38:18 51°19.887 2°48.604 -999 -999 -999 -999 -999
2009-02-20 08:38:23 51°19.899 2°48.585 -999 -999 -999 -999 -999
2009-02-20 08:38:29 51°19.914 2°48.563 -999 -999 -999 -999 -999
2009-02-20 08:38:33 51°19.923 2°48.548 -999 -999 -999 -999 -999
2009-02-20 08:38:38 51°19.936 2°48.529 -999 -999 -999 -999 -999
2009-02-20 08:38:44 51°19.95 2°48.507 -999 -999 -999 -999 -999
2009-02-20 08:38:49 51°19.962 2°48.488 -999 -999 -999 -999 -999
2009-02-20 08:38:53 51°19.972 2°48.473 -999 -999 -999 -999 -999
2009-02-20 08:38:59 51°19.987 2°48.451 -999 -999 -999 -999 -999
2009-02-20 08:39:04 51°19.999 2°48.433 -999 -999 -999 -999 -999
2009-02-20 08:39:09 51°20.011 2°48.414 -999 -999 -999 -999 -999
2009-02-20 08:39:13 51°20.021 2°48.399 -999 -999 -999 -999 -999
2009-02-20 08:39:18 51°20.033 2°48.381 -999 -999 -999 -999 -999
2009-02-20 08:39:24 51°20.047 2°48.358 -999 -999 -999 -999 -999
2009-02-20 08:39:29 51°20.059 2°48.339 -999 -999 -999 -999 -999
2009-02-20 08:39:33 51°20.069 2°48.324 -999 -999 -999 -999 -999
2009-02-20 08:39:38 51°20.081 2°48.306 -999 -999 -999 -999 -999
2009-02-20 08:39:43 51°20.093 2°48.287 -999 -999 -999 -999 -999
2009-02-20 08:39:49 51°20.108 2°48.265 -999 -999 -999 -999 -999
2009-02-20 08:39:53 51°20.117 2°48.25 -999 -999 -999 -999 -999
2009-02-20 08:39:58 51°20.129 2°48.231 -999 -999 -999 -999 -999
2009-02-20 08:40:03 51°20.141 2°48.212 -999 -999 -999 -999 -999
2009-02-20 08:40:09 51°20.156 2°48.19 -999 -999 -999 -999 -999
2009-02-20 08:40:14 51°20.168 2°48.172 -999 -999 -999 -999 -999
2009-02-20 08:40:18 51°20.178 2°48.157 -999 -999 -999 -999 -999
2009-02-20 08:40:24 51°20.193 2°48.136 -999 -999 -999 -999 -999
2009-02-20 08:40:29 51°20.206 2°48.119 -999 -999 -999 -999 -999
2009-02-20 08:40:34 51°20.22 2°48.103 -999 -999 -999 -999 -999
2009-02-20 08:40:38 51°20.231 2°48.09 -999 -999 -999 -999 -999
2009-02-20 08:40:44 51°20.248 2°48.073 -999 -999 -999 -999 -999
2009-02-20 08:40:49 51°20.263 2°48.059 -999 -999 -999 -999 -999
2009-02-20 08:40:53 51°20.275 2°48.048 -999 -999 -999 -999 -999
2009-02-20 08:40:58 51°20.29 2°48.035 -999 -999 -999 -999 -999
2009-02-20 08:41:04 51°20.308 2°48.021 -999 -999 -999 -999 -999
2009-02-20 08:41:09 51°20.323 2°48.008 -999 -999 -999 -999 -999
2009-02-20 08:41:13 51°20.336 2°48 -999 -999 -999 -999 -999
2009-02-20 08:41:18 51°20.352 2°47.988 -999 -999 -999 -999 -999
2009-02-20 08:41:24 51°20.371 2°47.976 -999 -999 -999 -999 -999
2009-02-20 08:41:29 51°20.386 2°47.965 -999 -999 -999 -999 -999
2009-02-20 08:41:33 51°20.399 2°47.957 -999 -999 -999 -999 -999
2009-02-20 08:41:38 51°20.415 2°47.947 -999 -999 -999 -999 -999
2009-02-20 08:41:44 51°20.434 2°47.935 -999 -999 -999 -999 -999
2009-02-20 08:41:49 51°20.45 2°47.925 -999 -999 -999 -999 -999
2009-02-20 08:41:54 51°20.466 2°47.915 -999 -999 -999 -999 -999
2009-02-20 08:41:58 51°20.479 2°47.906 -999 -999 -999 -999 -999
2009-02-20 08:42:03 51°20.495 2°47.896 -999 -999 -999 -999 -999
2009-02-20 08:42:09 51°20.514 2°47.884 -999 -999 -999 -999 -999
2009-02-20 08:42:13 51°20.527 2°47.876 -999 -999 -999 -999 -999
2009-02-20 08:42:18 51°20.543 2°47.866 -999 -999 -999 -999 -999
2009-02-20 08:42:23 51°20.559 2°47.856 -999 -999 -999 -999 -999
2009-02-20 08:42:29 51°20.578 2°47.843 -999 -999 -999 -999 -999
2009-02-20 08:42:34 51°20.594 2°47.832 -999 -999 -999 -999 -999
2009-02-20 08:42:38 51°20.606 2°47.824 -999 -999 -999 -999 -999
2009-02-20 08:42:43 51°20.622 2°47.813 -999 -999 -999 -999 -999
2009-02-20 08:42:49 51°20.641 2°47.801 -999 -999 -999 -999 -999
2009-02-20 08:42:54 51°20.657 2°47.79 -999 -999 -999 -999 -999
2009-02-20 08:42:58 51°20.669 2°47.782 -999 -999 -999 -999 -999
2009-02-20 08:43:04 51°20.688 2°47.771 -999 -999 -999 -999 -999
2009-02-20 08:43:09 51°20.704 2°47.76 -999 -999 -999 -999 -999
2009-02-20 08:43:13 51°20.717 2°47.753 -999 -999 -999 -999 -999
2009-02-20 08:43:19 51°20.736 2°47.74 -999 -999 -999 -999 -999
2009-02-20 08:43:24 51°20.752 2°47.73 -999 -999 -999 -999 -999
2009-02-20 08:43:29 51°20.768 2°47.72 -999 -999 -999 -999 -999
2009-02-20 08:43:33 51°20.78 2°47.712 -999 -999 -999 -999 -999
2009-02-20 08:43:38 51°20.796 2°47.701 -999 -999 -999 -999 -999
2009-02-20 08:43:44 51°20.815 2°47.689 -999 -999 -999 -999 -999
2009-02-20 08:43:49 51°20.831 2°47.679 -999 -999 -999 -999 -999
2009-02-20 08:43:53 51°20.844 2°47.671 -999 -999 -999 -999 -999
2009-02-20 08:43:58 51°20.86 2°47.661 -999 -999 -999 -999 -999
2009-02-20 08:44:04 51°20.879 2°47.649 -999 -999 -999 -999 -999
2009-02-20 08:44:09 51°20.895 2°47.639 -999 -999 -999 -999 -999
2009-02-20 08:44:13 51°20.907 2°47.631 -999 -999 -999 -999 -999
2009-02-20 08:44:18 51°20.923 2°47.621 -999 -999 -999 -999 -999
2009-02-20 08:44:23 51°20.939 2°47.61 -999 -999 -999 -999 -999
2009-02-20 08:44:29 51°20.957 2°47.598 -999 -999 -999 -999 -999
2009-02-20 08:44:34 51°20.973 2°47.586 -999 -999 -999 -999 -999
2009-02-20 08:44:38 51°20.985 2°47.577 -999 -999 -999 -999 -999
2009-02-20 08:44:44 51°21.004 2°47.563 -999 -999 -999 -999 -999
2009-02-20 08:44:49 51°21.019 2°47.551 -999 -999 -999 -999 -999
2009-02-20 08:44:53 51°21.031 2°47.541 -999 -999 -999 -999 -999
2009-02-20 08:44:58 51°21.046 2°47.528 -999 -999 -999 -999 -999
2009-02-20 08:45:03 51°21.061 2°47.515 -999 -999 -999 -999 -999
2009-02-20 08:45:09 51°21.08 2°47.501 -999 -999 -999 -999 -999
2009-02-20 08:45:14 51°21.094 2°47.488 -999 -999 -999 -999 -999
2009-02-20 08:45:18 51°21.107 2°47.478 -999 -999 -999 -999 -999
2009-02-20 08:45:24 51°21.124 2°47.461 -999 -999 -999 -999 -999
2009-02-20 08:45:29 51°21.138 2°47.447 -999 -999 -999 -999 -999
2009-02-20 08:45:33 51°21.15 2°47.435 -999 -999 -999 -999 -999
2009-02-20 08:45:38 51°21.163 2°47.42 -999 -999 -999 -999 -999
2009-02-20 08:45:44 51°21.18 2°47.402 -999 -999 -999 -999 -999
2009-02-20 08:45:49 51°21.193 2°47.386 -999 -999 -999 -999 -999
2009-02-20 08:45:53 51°21.204 2°47.373 -999 -999 -999 -999 -999
2009-02-20 08:45:58 51°21.217 2°47.357 -999 -999 -999 -999 -999
2009-02-20 08:46:04 51°21.233 2°47.338 -999 -999 -999 -999 -999
2009-02-20 08:46:09 51°21.246 2°47.321 -999 -999 -999 -999 -999
2009-02-20 08:46:13 51°21.257 2°47.308 -999 -999 -999 -999 -999
2009-02-20 08:46:18 51°21.269 2°47.29 -999 -999 -999 -999 -999
2009-02-20 08:46:24 51°21.284 2°47.269 -999 -999 -999 -999 -999
2009-02-20 08:46:29 51°21.296 2°47.251 -999 -999 -999 -999 -999
2009-02-20 08:46:33 51°21.306 2°47.237 -999 -999 -999 -999 -999
2009-02-20 08:46:38 51°21.318 2°47.218 -999 -999 -999 -999 -999
2009-02-20 08:46:43 51°21.33 2°47.2 -999 -999 -999 -999 -999
2009-02-20 08:46:49 51°21.344 2°47.178 -999 -999 -999 -999 -999
2009-02-20 08:46:54 51°21.356 2°47.16 -999 -999 -999 -999 -999
2009-02-20 08:46:58 51°21.366 2°47.145 -999 -999 -999 -999 -999
2009-02-20 08:47:04 51°21.38 2°47.123 -999 -999 -999 -999 -999
2009-02-20 08:47:09 51°21.392 2°47.105 -999 -999 -999 -999 -999
2009-02-20 08:47:14 51°21.404 2°47.086 -999 -999 -999 -999 -999
2009-02-20 08:47:18 51°21.414 2°47.071 -999 -999 -999 -999 -999
2009-02-20 08:47:24 51°21.428 2°47.049 -999 -999 -999 -999 -999
2009-02-20 08:47:29 51°21.44 2°47.031 -999 -999 -999 -999 -999
2009-02-20 08:47:34 51°21.452 2°47.013 -999 -999 -999 -999 -999
2009-02-20 08:47:38 51°21.462 2°46.998 -999 -999 -999 -999 -999
2009-02-20 08:47:44 51°21.477 2°46.976 -999 -999 -999 -999 -999
2009-02-20 08:47:49 51°21.488 2°46.958 -999 -999 -999 -999 -999
2009-02-20 08:47:53 51°21.498 2°46.943 -999 -999 -999 -999 -999
2009-02-20 08:47:58 51°21.509 2°46.924 -999 -999 -999 -999 -999
2009-02-20 08:48:04 51°21.523 2°46.901 -999 -999 -999 -999 -999
2009-02-20 08:48:09 51°21.535 2°46.882 -999 -999 -999 -999 -999
2009-02-20 08:48:13 51°21.544 2°46.867 -999 -999 -999 -999 -999
2009-02-20 08:48:18 51°21.555 2°46.848 -999 -999 -999 -999 -999
2009-02-20 08:48:24 51°21.569 2°46.824 -999 -999 -999 -999 -999
2009-02-20 08:48:29 51°21.58 2°46.805 -999 -999 -999 -999 -999
2009-02-20 08:48:33 51°21.589 2°46.79 -999 -999 -999 -999 -999
2009-02-20 08:48:38 51°21.601 2°46.771 -999 -999 -999 -999 -999
2009-02-20 08:48:44 51°21.614 2°46.748 -999 -999 -999 -999 -999
2009-02-20 08:48:49 51°21.626 2°46.729 -999 -999 -999 -999 -999
2009-02-20 08:48:53 51°21.635 2°46.714 -999 -999 -999 -999 -999
2009-02-20 08:48:58 51°21.646 2°46.695 -999 -999 -999 -999 -999
2009-02-20 08:49:03 51°21.658 2°46.676 -999 -999 -999 -999 -999
2009-02-20 08:49:09 51°21.672 2°46.653 -999 -999 -999 -999 -999
2009-02-20 08:49:14 51°21.683 2°46.634 -999 -999 -999 -999 -999
2009-02-20 08:49:18 51°21.692 2°46.618 -999 -999 -999 -999 -999
2009-02-20 08:49:23 51°21.704 2°46.599 -999 -999 -999 -999 -999
2009-02-20 08:49:29 51°21.717 2°46.576 -999 -999 -999 -999 -999
2009-02-20 08:49:34 51°21.729 2°46.557 -999 -999 -999 -999 -999
2009-02-20 08:49:38 51°21.738 2°46.542 -999 -999 -999 -999 -999
2009-02-20 08:49:44 51°21.752 2°46.519 -999 -999 -999 -999 -999
2009-02-20 08:49:49 51°21.764 2°46.5 -999 -999 -999 -999 -999
2009-02-20 08:49:54 51°21.775 2°46.481 -999 -999 -999 -999 -999
2009-02-20 08:49:59 51°21.787 2°46.462 -999 -999 -999 -999 -999
2009-02-20 08:50:04 51°21.798 2°46.443 -999 -999 -999 -999 -999
2009-02-20 08:50:09 51°21.81 2°46.424 -999 -999 -999 -999 -999
2009-02-20 08:50:13 51°21.819 2°46.408 -999 -999 -999 -999 -999
2009-02-20 08:50:18 51°21.83 2°46.389 -999 -999 -999 -999 -999
2009-02-20 08:50:24 51°21.844 2°46.366 -999 -999 -999 -999 -999
2009-02-20 08:50:29 51°21.856 2°46.347 -999 -999 -999 -999 -999
2009-02-20 08:50:33 51°21.865 2°46.332 -999 -999 -999 -999 -999
2009-02-20 08:50:38 51°21.876 2°46.313 -999 -999 -999 -999 -999
2009-02-20 08:50:44 51°21.89 2°46.29 -999 -999 -999 -999 -999
2009-02-20 08:50:49 51°21.901 2°46.27 -999 -999 -999 -999 -999
2009-02-20 08:50:53 51°21.91 2°46.254 -999 -999 -999 -999 -999
2009-02-20 08:50:58 51°21.922 2°46.235 -999 -999 -999 -999 -999
2009-02-20 08:51:04 51°21.935 2°46.211 -999 -999 -999 -999 -999
2009-02-20 08:51:09 51°21.947 2°46.192 -999 -999 -999 -999 -999
2009-02-20 08:51:14 51°21.958 2°46.172 -999 -999 -999 -999 -999
2009-02-20 08:51:18 51°21.967 2°46.157 -999 -999 -999 -999 -999
2009-02-20 08:51:24 51°21.98 2°46.133 -999 -999 -999 -999 -999
2009-02-20 08:51:29 51°21.991 2°46.113 -999 -999 -999 -999 -999
2009-02-20 08:51:33 51°22 2°46.098 -999 -999 -999 -999 -999
2009-02-20 08:51:38 51°22.011 2°46.077 -999 -999 -999 -999 -999
2009-02-20 08:51:43 51°22.022 2°46.058 -999 -999 -999 -999 -999
2009-02-20 08:51:49 51°22.035 2°46.034 -999 -999 -999 -999 -999
2009-02-20 08:51:54 51°22.046 2°46.014 -999 -999 -999 -999 -999
2009-02-20 08:51:58 51°22.055 2°45.998 -999 -999 -999 -999 -999
2009-02-20 08:52:04 51°22.069 2°45.974 -999 -999 -999 -999 -999
2009-02-20 08:52:09 51°22.08 2°45.954 -999 -999 -999 -999 -999
2009-02-20 08:52:14 51°22.091 2°45.935 -999 -999 -999 -999 -999
2009-02-20 08:52:18 51°22.1 2°45.919 -999 -999 -999 -999 -999
2009-02-20 08:52:24 51°22.114 2°45.896 -999 -999 -999 -999 -999
2009-02-20 08:52:29 51°22.126 2°45.877 -999 -999 -999 -999 -999
2009-02-20 08:52:33 51°22.135 2°45.861 -999 -999 -999 -999 -999
2009-02-20 08:52:39 51°22.149 2°45.838 -999 -999 -999 -999 -999
2009-02-20 08:52:44 51°22.16 2°45.818 -999 -999 -999 -999 -999
2009-02-20 08:52:49 51°22.171 2°45.798 -999 -999 -999 -999 -999
2009-02-20 08:52:53 51°22.181 2°45.783 -999 -999 -999 -999 -999
2009-02-20 08:52:58 51°22.192 2°45.763 -999 -999 -999 -999 -999
2009-02-20 08:53:04 51°22.206 2°45.74 -999 -999 -999 -999 -999
2009-02-20 08:53:09 51°22.218 2°45.721 -999 -999 -999 -999 -999
2009-02-20 08:53:13 51°22.227 2°45.706 -999 -999 -999 -999 -999
2009-02-20 08:53:18 51°22.239 2°45.687 -999 -999 -999 -999 -999
2009-02-20 08:53:23 51°22.251 2°45.668 -999 -999 -999 -999 -999
2009-02-20 08:53:29 51°22.266 2°45.645 -999 -999 -999 -999 -999
2009-02-20 08:53:34 51°22.278 2°45.627 -999 -999 -999 -999 -999
2009-02-20 08:53:38 51°22.288 2°45.612 -999 -999 -999 -999 -999
2009-02-20 08:53:43 51°22.299 2°45.593 -999 -999 -999 -999 -999
2009-02-20 08:53:49 51°22.314 2°45.569 -999 -999 -999 -999 -999
2009-02-20 08:53:54 51°22.325 2°45.55 -999 -999 -999 -999 -999
2009-02-20 08:53:58 51°22.334 2°45.534 -999 -999 -999 -999 -999
2009-02-20 08:54:04 51°22.348 2°45.511 -999 -999 -999 -999 -999
2009-02-20 08:54:09 51°22.36 2°45.491 -999 -999 -999 -999 -999
2009-02-20 08:54:14 51°22.371 2°45.471 -999 -999 -999 -999 -999
2009-02-20 08:54:18 51°22.38 2°45.456 -999 -999 -999 -999 -999
2009-02-20 08:54:24 51°22.394 2°45.432 -999 -999 -999 -999 -999
2009-02-20 08:54:29 51°22.406 2°45.413 -999 -999 -999 -999 -999
2009-02-20 08:54:34 51°22.418 2°45.393 -999 -999 -999 -999 -999
2009-02-20 08:54:38 51°22.427 2°45.378 -999 -999 -999 -999 -999
2009-02-20 08:54:44 51°22.441 2°45.354 -999 -999 -999 -999 -999
2009-02-20 08:54:49 51°22.452 2°45.335 -999 -999 -999 -999 -999
2009-02-20 08:54:53 51°22.461 2°45.32 -999 -999 -999 -999 -999
2009-02-20 08:54:58 51°22.473 2°45.3 -999 -999 -999 -999 -999
2009-02-20 08:55:04 51°22.486 2°45.277 -999 -999 -999 -999 -999
2009-02-20 08:55:09 51°22.498 2°45.257 -999 -999 -999 -999 -999
2009-02-20 08:55:13 51°22.507 2°45.242 -999 -999 -999 -999 -999
2009-02-20 08:55:18 51°22.518 2°45.222 -999 -999 -999 -999 -999
2009-02-20 08:55:24 51°22.532 2°45.199 -999 -999 -999 -999 -999
2009-02-20 08:55:29 51°22.544 2°45.18 -999 -999 -999 -999 -999
2009-02-20 08:55:33 51°22.553 2°45.165 -999 -999 -999 -999 -999
2009-02-20 08:55:38 51°22.564 2°45.145 -999 -999 -999 -999 -999
2009-02-20 08:55:43 51°22.576 2°45.126 -999 -999 -999 -999 -999
2009-02-20 08:55:49 51°22.589 2°45.103 -999 -999 -999 -999 -999
2009-02-20 08:55:53 51°22.599 2°45.088 -999 -999 -999 -999 -999
2009-02-20 08:55:58 51°22.61 2°45.069 -999 -999 -999 -999 -999
2009-02-20 08:56:03 51°22.622 2°45.05 -999 -999 -999 -999 -999
2009-02-20 08:56:09 51°22.636 2°45.027 -999 -999 -999 -999 -999
2009-02-20 08:56:14 51°22.648 2°45.008 -999 -999 -999 -999 -999
2009-02-20 08:56:18 51°22.658 2°44.994 -999 -999 -999 -999 -999
2009-02-20 08:56:24 51°22.672 2°44.971 -999 -999 -999 -999 -999
2009-02-20 08:56:29 51°22.684 2°44.952 -999 -999 -999 -999 -999
2009-02-20 08:56:33 51°22.694 2°44.937 -999 -999 -999 -999 -999
2009-02-20 08:56:38 51°22.706 2°44.919 -999 -999 -999 -999 -999
2009-02-20 08:56:44 51°22.72 2°44.897 -999 -999 -999 -999 -999
2009-02-20 08:56:49 51°22.732 2°44.878 -999 -999 -999 -999 -999
2009-02-20 08:56:53 51°22.741 2°44.863 -999 -999 -999 -999 -999
2009-02-20 08:56:58 51°22.753 2°44.844 -999 -999 -999 -999 -999
2009-02-20 08:57:04 51°22.766 2°44.823 -999 -999 -999 -999 -999
2009-02-20 08:57:09 51°22.776 2°44.806 -999 -999 -999 -999 -999
2009-02-20 08:57:13 51°22.784 2°44.793 -999 -999 -999 -999 -999
2009-02-20 08:57:18 51°22.794 2°44.776 -999 -999 -999 -999 -999
2009-02-20 08:57:24 51°22.806 2°44.756 -999 -999 -999 -999 -999
2009-02-20 08:57:29 51°22.817 2°44.738 -999 -999 -999 -999 -999
2009-02-20 08:57:33 51°22.826 2°44.724 -999 -999 -999 -999 -999
2009-02-20 08:57:38 51°22.837 2°44.706 -999 -999 -999 -999 -999
2009-02-20 08:57:44 51°22.851 2°44.684 -999 -999 -999 -999 -999
2009-02-20 08:57:49 51°22.862 2°44.666 -999 -999 -999 -999 -999
2009-02-20 08:57:54 51°22.873 2°44.647 -999 -999 -999 -999 -999
2009-02-20 08:57:58 51°22.882 2°44.632 -999 -999 -999 -999 -999
2009-02-20 08:58:04 51°22.896 2°44.61 -999 -999 -999 -999 -999
2009-02-20 08:58:09 51°22.907 2°44.591 -999 -999 -999 -999 -999
2009-02-20 08:58:13 51°22.916 2°44.577 -999 -999 -999 -999 -999
2009-02-20 08:58:18 51°22.928 2°44.558 -999 -999 -999 -999 -999
2009-02-20 08:58:23 51°22.94 2°44.54 -999 -999 -999 -999 -999
2009-02-20 08:58:29 51°22.954 2°44.518 -999 -999 -999 -999 -999
2009-02-20 08:58:34 51°22.966 2°44.5 -999 -999 -999 -999 -999
2009-02-20 08:58:38 51°22.975 2°44.484 -999 -999 -999 -999 -999
2009-02-20 08:58:44 51°22.989 2°44.462 -999 -999 -999 -999 -999
2009-02-20 08:58:49 51°23.001 2°44.444 -999 -999 -999 -999 -999
2009-02-20 08:58:54 51°23.013 2°44.425 -999 -999 -999 -999 -999
2009-02-20 08:58:58 51°23.023 2°44.41 -999 -999 -999 -999 -999
2009-02-20 08:59:04 51°23.037 2°44.388 -999 -999 -999 -999 -999
2009-02-20 08:59:09 51°23.049 2°44.37 -999 -999 -999 -999 -999
2009-02-20 08:59:13 51°23.058 2°44.355 -999 -999 -999 -999 -999
2009-02-20 08:59:19 51°23.073 2°44.333 -999 -999 -999 -999 -999
2009-02-20 08:59:24 51°23.085 2°44.315 -999 -999 -999 -999 -999
2009-02-20 08:59:29 51°23.097 2°44.297 -999 -999 -999 -999 -999
2009-02-20 08:59:33 51°23.106 2°44.282 -999 -999 -999 -999 -999
2009-02-20 08:59:38 51°23.119 2°44.264 -999 -999 -999 -999 -999
2009-02-20 08:59:44 51°23.133 2°44.242 -999 -999 -999 -999 -999
2009-02-20 08:59:49 51°23.145 2°44.224 -999 -999 -999 -999 -999
2009-02-20 08:59:53 51°23.155 2°44.209 -999 -999 -999 -999 -999
2009-02-20 08:59:58 51°23.167 2°44.191 -999 -999 -999 -999 -999
2009-02-20 09:00:04 51°23.181 2°44.169 -999 -999 -999 -999 -999
2009-02-20 09:00:09 51°23.193 2°44.15 -999 -999 -999 -999 -999
2009-02-20 09:00:14 51°23.204 2°44.131 -999 -999 -999 -999 -999
2009-02-20 09:00:18 51°23.214 2°44.115 -999 -999 -999 -999 -999
2009-02-20 09:00:23 51°23.225 2°44.097 -999 -999 -999 -999 -999
2009-02-20 09:00:29 51°23.239 2°44.074 -999 -999 -999 -999 -999
2009-02-20 09:00:34 51°23.25 2°44.055 -999 -999 -999 -999 -999
2009-02-20 09:00:38 51°23.259 2°44.039 -999 -999 -999 -999 -999
2009-02-20 09:00:44 51°23.272 2°44.016 -999 -999 -999 -999 -999
2009-02-20 09:00:49 51°23.284 2°43.996 -999 -999 -999 -999 -999
2009-02-20 09:00:54 51°23.295 2°43.977 -999 -999 -999 -999 -999
2009-02-20 09:00:58 51°23.304 2°43.962 -999 -999 -999 -999 -999
2009-02-20 09:01:03 51°23.316 2°43.943 -999 -999 -999 -999 -999
2009-02-20 09:01:09 51°23.329 2°43.921 -999 -999 -999 -999 -999
2009-02-20 09:01:14 51°23.34 2°43.902 -999 -999 -999 -999 -999
2009-02-20 09:01:18 51°23.349 2°43.886 -999 -999 -999 -999 -999
2009-02-20 09:01:24 51°23.363 2°43.863 -999 -999 -999 -999 -999
2009-02-20 09:01:29 51°23.374 2°43.844 -999 -999 -999 -999 -999
2009-02-20 09:01:33 51°23.383 2°43.829 -999 -999 -999 -999 -999
2009-02-20 09:01:38 51°23.394 2°43.81 -999 -999 -999 -999 -999
2009-02-20 09:01:44 51°23.408 2°43.787 -999 -999 -999 -999 -999
2009-02-20 09:01:49 51°23.419 2°43.768 -999 -999 -999 -999 -999
2009-02-20 09:01:53 51°23.428 2°43.753 -999 -999 -999 -999 -999
2009-02-20 09:01:58 51°23.439 2°43.733 -999 -999 -999 -999 -999
2009-02-20 09:02:04 51°23.452 2°43.71 -999 -999 -999 -999 -999
2009-02-20 09:02:09 51°23.463 2°43.69 -999 -999 -999 -999 -999
2009-02-20 09:02:13 51°23.471 2°43.675 -999 -999 -999 -999 -999
2009-02-20 09:02:18 51°23.482 2°43.655 -999 -999 -999 -999 -999
2009-02-20 09:02:23 51°23.493 2°43.636 -999 -999 -999 -999 -999
2009-02-20 09:02:29 51°23.506 2°43.613 -999 -999 -999 -999 -999
2009-02-20 09:02:33 51°23.515 2°43.598 -999 -999 -999 -999 -999
2009-02-20 09:02:38 51°23.526 2°43.578 -999 -999 -999 -999 -999
2009-02-20 09:02:43 51°23.538 2°43.559 -999 -999 -999 -999 -999
2009-02-20 09:02:49 51°23.552 2°43.537 -999 -999 -999 -999 -999
2009-02-20 09:02:54 51°23.563 2°43.518 -999 -999 -999 -999 -999
2009-02-20 09:02:58 51°23.572 2°43.502 -999 -999 -999 -999 -999
2009-02-20 09:03:04 51°23.585 2°43.479 -999 -999 -999 -999 -999
2009-02-20 09:03:09 51°23.596 2°43.46 -999 -999 -999 -999 -999
2009-02-20 09:03:13 51°23.606 2°43.445 -999 -999 -999 -999 -999
2009-02-20 09:03:18 51°23.617 2°43.425 -999 -999 -999 -999 -999
2009-02-20 09:03:24 51°23.63 2°43.402 -999 -999 -999 -999 -999
2009-02-20 09:03:29 51°23.642 2°43.383 -999 -999 -999 -999 -999
2009-02-20 09:03:33 51°23.651 2°43.369 -999 -999 -999 -999 -999
2009-02-20 09:03:38 51°23.663 2°43.35 -999 -999 -999 -999 -999
2009-02-20 09:03:44 51°23.677 2°43.328 -999 -999 -999 -999 -999
2009-02-20 09:03:49 51°23.688 2°43.309 -999 -999 -999 -999 -999
2009-02-20 09:03:53 51°23.698 2°43.294 -999 -999 -999 -999 -999
2009-02-20 09:03:58 51°23.709 2°43.276 -999 -999 -999 -999 -999
2009-02-20 09:04:04 51°23.723 2°43.254 -999 -999 -999 -999 -999
2009-02-20 09:04:09 51°23.735 2°43.235 -999 -999 -999 -999 -999
2009-02-20 09:04:13 51°23.744 2°43.22 -999 -999 -999 -999 -999
2009-02-20 09:04:18 51°23.755 2°43.202 -999 -999 -999 -999 -999
2009-02-20 09:04:24 51°23.769 2°43.179 -999 -999 -999 -999 -999
2009-02-20 09:04:29 51°23.78 2°43.16 -999 -999 -999 -999 -999
2009-02-20 09:04:34 51°23.791 2°43.141 -999 -999 -999 -999 -999
2009-02-20 09:04:38 51°23.8 2°43.126 -999 -999 -999 -999 -999
2009-02-20 09:04:43 51°23.811 2°43.107 -999 -999 -999 -999 -999
2009-02-20 09:04:49 51°23.824 2°43.084 -999 -999 -999 -999 -999
2009-02-20 09:04:53 51°23.832 2°43.068 -999 -999 -999 -999 -999
2009-02-20 09:04:58 51°23.844 2°43.049 -999 -999 -999 -999 -999
2009-02-20 09:05:03 51°23.855 2°43.031 -999 -999 -999 -999 -999
2009-02-20 09:05:09 51°23.868 2°43.008 -999 -999 -999 -999 -999
2009-02-20 09:05:14 51°23.879 2°42.989 -999 -999 -999 -999 -999
2009-02-20 09:05:18 51°23.888 2°42.973 -999 -999 -999 -999 -999
2009-02-20 09:05:24 51°23.902 2°42.95 -999 -999 -999 -999 -999
2009-02-20 09:05:29 51°23.913 2°42.932 -999 -999 -999 -999 -999
2009-02-20 09:05:33 51°23.922 2°42.917 -999 -999 -999 -999 -999
2009-02-20 09:05:38 51°23.934 2°42.898 -999 -999 -999 -999 -999
2009-02-20 09:05:44 51°23.948 2°42.875 -999 -999 -999 -999 -999
2009-02-20 09:05:49 51°23.959 2°42.857 -999 -999 -999 -999 -999
2009-02-20 09:05:53 51°23.969 2°42.842 -999 -999 -999 -999 -999
2009-02-20 09:05:59 51°23.983 2°42.82 -999 -999 -999 -999 -999
2009-02-20 09:06:04 51°23.994 2°42.801 -999 -999 -999 -999 -999
2009-02-20 09:06:09 51°24.006 2°42.782 -999 -999 -999 -999 -999
2009-02-20 09:06:13 51°24.015 2°42.767 -999 -999 -999 -999 -999
2009-02-20 09:06:18 51°24.026 2°42.749 -999 -999 -999 -999 -999
2009-02-20 09:06:24 51°24.04 2°42.726 -999 -999 -999 -999 -999
2009-02-20 09:06:29 51°24.052 2°42.707 -999 -999 -999 -999 -999
2009-02-20 09:06:33 51°24.061 2°42.693 -999 -999 -999 -999 -999
2009-02-20 09:06:38 51°24.072 2°42.674 -999 -999 -999 -999 -999
2009-02-20 09:06:44 51°24.086 2°42.651 -999 -999 -999 -999 -999
2009-02-20 09:06:49 51°24.097 2°42.632 -999 -999 -999 -999 -999
2009-02-20 09:06:53 51°24.106 2°42.617 -999 -999 -999 -999 -999
2009-02-20 09:06:58 51°24.117 2°42.597 -999 -999 -999 -999 -999
2009-02-20 09:07:03 51°24.127 2°42.578 -999 -999 -999 -999 -999
2009-02-20 09:07:09 51°24.141 2°42.554 -999 -999 -999 -999 -999
2009-02-20 09:07:14 51°24.151 2°42.535 -999 -999 -999 -999 -999
2009-02-20 09:07:18 51°24.16 2°42.519 -999 -999 -999 -999 -999
2009-02-20 09:07:24 51°24.173 2°42.496 -999 -999 -999 -999 -999
2009-02-20 09:07:29 51°24.184 2°42.476 -999 -999 -999 -999 -999
2009-02-20 09:07:34 51°24.195 2°42.457 -999 -999 -999 -999 -999
2009-02-20 09:07:38 51°24.205 2°42.442 -999 -999 -999 -999 -999
2009-02-20 09:07:43 51°24.216 2°42.423 -999 -999 -999 -999 -999
2009-02-20 09:07:49 51°24.23 2°42.4 -999 -999 -999 -999 -999
2009-02-20 09:07:53 51°24.239 2°42.385 -999 -999 -999 -999 -999
2009-02-20 09:07:58 51°24.251 2°42.367 -999 -999 -999 -999 -999
2009-02-20 09:08:04 51°24.266 2°42.346 -999 -999 -999 -999 -999
2009-02-20 09:08:09 51°24.278 2°42.328 -999 -999 -999 -999 -999
2009-02-20 09:08:13 51°24.287 2°42.313 -999 -999 -999 -999 -999
2009-02-20 09:08:19 51°24.301 2°42.291 -999 -999 -999 -999 -999
2009-02-20 09:08:24 51°24.313 2°42.273 -999 -999 -999 -999 -999
2009-02-20 09:08:29 51°24.326 2°42.255 -999 -999 -999 -999 -999
2009-02-20 09:08:33 51°24.335 2°42.241 -999 -999 -999 -999 -999
2009-02-20 09:08:39 51°24.35 2°42.219 -999 -999 -999 -999 -999
2009-02-20 09:08:44 51°24.362 2°42.201 -999 -999 -999 -999 -999
2009-02-20 09:08:49 51°24.374 2°42.183 -999 -999 -999 -999 -999
2009-02-20 09:08:53 51°24.384 2°42.169 -999 -999 -999 -999 -999
2009-02-20 09:08:58 51°24.396 2°42.151 -999 -999 -999 -999 -999
2009-02-20 09:09:04 51°24.411 2°42.13 -999 -999 -999 -999 -999
2009-02-20 09:09:09 51°24.423 2°42.111 -999 -999 -999 -999 -999
2009-02-20 09:09:13 51°24.432 2°42.097 -999 -999 -999 -999 -999
2009-02-20 09:09:18 51°24.444 2°42.078 -999 -999 -999 -999 -999
2009-02-20 09:09:23 51°24.456 2°42.06 -999 -999 -999 -999 -999
2009-02-20 09:09:29 51°24.47 2°42.037 -999 -999 -999 -999 -999
2009-02-20 09:09:34 51°24.482 2°42.018 -999 -999 -999 -999 -999
2009-02-20 09:09:38 51°24.491 2°42.003 -999 -999 -999 -999 -999
2009-02-20 09:09:44 51°24.506 2°41.981 -999 -999 -999 -999 -999
2009-02-20 09:09:49 51°24.518 2°41.962 -999 -999 -999 -999 -999
2009-02-20 09:09:54 51°24.53 2°41.944 -999 -999 -999 -999 -999
2009-02-20 09:09:58 51°24.539 2°41.929 -999 -999 -999 -999 -999
2009-02-20 09:10:04 51°24.554 2°41.907 -999 -999 -999 -999 -999
2009-02-20 09:10:09 51°24.565 2°41.888 -999 -999 -999 -999 -999
2009-02-20 09:10:13 51°24.575 2°41.873 -999 -999 -999 -999 -999
2009-02-20 09:10:18 51°24.587 2°41.855 -999 -999 -999 -999 -999
2009-02-20 09:10:24 51°24.602 2°41.832 -999 -999 -999 -999 -999
2009-02-20 09:10:29 51°24.613 2°41.814 -999 -999 -999 -999 -999
2009-02-20 09:10:33 51°24.623 2°41.798 -999 -999 -999 -999 -999
2009-02-20 09:10:38 51°24.634 2°41.779 -999 -999 -999 -999 -999
2009-02-20 09:10:44 51°24.648 2°41.756 -999 -999 -999 -999 -999
2009-02-20 09:10:49 51°24.66 2°41.737 -999 -999 -999 -999 -999
2009-02-20 09:10:53 51°24.669 2°41.721 -999 -999 -999 -999 -999
2009-02-20 09:10:59 51°24.683 2°41.698 -999 -999 -999 -999 -999
2009-02-20 09:11:04 51°24.694 2°41.679 -999 -999 -999 -999 -999
2009-02-20 09:11:09 51°24.706 2°41.66 -999 -999 -999 -999 -999
2009-02-20 09:11:14 51°24.718 2°41.641 -999 -999 -999 -999 -999
2009-02-20 09:11:18 51°24.727 2°41.626 -999 -999 -999 -999 -999
2009-02-20 09:11:23 51°24.738 2°41.607 -999 -999 -999 -999 -999
2009-02-20 09:11:29 51°24.753 2°41.584 -999 -999 -999 -999 -999
2009-02-20 09:11:33 51°24.762 2°41.569 -999 -999 -999 -999 -999
2009-02-20 09:11:38 51°24.774 2°41.55 -999 -999 -999 -999 -999
2009-02-20 09:11:43 51°24.785 2°41.531 -999 -999 -999 -999 -999
2009-02-20 09:11:49 51°24.799 2°41.509 -999 -999 -999 -999 -999
2009-02-20 09:11:54 51°24.811 2°41.489 -999 -999 -999 -999 -999
2009-02-20 09:11:58 51°24.82 2°41.474 -999 -999 -999 -999 -999
2009-02-20 09:12:03 51°24.832 2°41.455 -999 -999 -999 -999 -999
2009-02-20 09:12:09 51°24.846 2°41.432 -999 -999 -999 -999 -999
2009-02-20 09:12:14 51°24.857 2°41.414 -999 -999 -999 -999 -999
2009-02-20 09:12:18 51°24.867 2°41.398 -999 -999 -999 -999 -999
2009-02-20 09:12:24 51°24.88 2°41.376 -999 -999 -999 -999 -999
2009-02-20 09:12:29 51°24.892 2°41.357 -999 -999 -999 -999 -999
2009-02-20 09:12:34 51°24.904 2°41.338 -999 -999 -999 -999 -999
2009-02-20 09:12:39 51°24.916 2°41.319 -999 -999 -999 -999 -999
2009-02-20 09:12:44 51°24.927 2°41.301 -999 -999 -999 -999 -999
2009-02-20 09:12:49 51°24.939 2°41.282 -999 -999 -999 -999 -999
2009-02-20 09:12:53 51°24.948 2°41.267 -999 -999 -999 -999 -999
2009-02-20 09:12:58 51°24.96 2°41.248 -999 -999 -999 -999 -999
2009-02-20 09:13:04 51°24.974 2°41.226 -999 -999 -999 -999 -999
2009-02-20 09:13:09 51°24.986 2°41.208 -999 -999 -999 -999 -999
2009-02-20 09:13:13 51°24.996 2°41.193 -999 -999 -999 -999 -999
2009-02-20 09:13:18 51°25.008 2°41.175 -999 -999 -999 -999 -999
2009-02-20 09:13:24 51°25.022 2°41.153 -999 -999 -999 -999 -999
2009-02-20 09:13:29 51°25.034 2°41.135 -999 -999 -999 -999 -999
2009-02-20 09:13:33 51°25.044 2°41.12 -999 -999 -999 -999 -999
2009-02-20 09:13:38 51°25.056 2°41.102 -999 -999 -999 -999 -999
2009-02-20 09:13:43 51°25.067 2°41.083 -999 -999 -999 -999 -999
2009-02-20 09:13:49 51°25.081 2°41.061 -999 -999 -999 -999 -999
2009-02-20 09:13:54 51°25.093 2°41.042 -999 -999 -999 -999 -999
2009-02-20 09:13:58 51°25.102 2°41.027 -999 -999 -999 -999 -999
2009-02-20 09:14:04 51°25.116 2°41.004 -999 -999 -999 -999 -999
2009-02-20 09:14:09 51°25.128 2°40.986 -999 -999 -999 -999 -999
2009-02-20 09:14:13 51°25.137 2°40.971 -999 -999 -999 -999 -999
2009-02-20 09:14:18 51°25.149 2°40.952 -999 -999 -999 -999 -999
2009-02-20 09:14:23 51°25.161 2°40.934 -999 -999 -999 -999 -999
2009-02-20 09:14:29 51°25.175 2°40.911 -999 -999 -999 -999 -999
2009-02-20 09:14:34 51°25.187 2°40.893 -999 -999 -999 -999 -999
2009-02-20 09:14:38 51°25.197 2°40.879 -999 -999 -999 -999 -999
2009-02-20 09:14:44 51°25.211 2°40.857 -999 -999 -999 -999 -999
2009-02-20 09:14:49 51°25.223 2°40.838 -999 -999 -999 -999 -999
2009-02-20 09:14:53 51°25.232 2°40.823 -999 -999 -999 -999 -999
2009-02-20 09:14:58 51°25.244 2°40.804 -999 -999 -999 -999 -999
2009-02-20 09:15:04 51°25.258 2°40.782 -999 -999 -999 -999 -999
2009-02-20 09:15:09 51°25.269 2°40.763 -999 -999 -999 -999 -999
2009-02-20 09:15:13 51°25.279 2°40.749 -999 -999 -999 -999 -999
2009-02-20 09:15:19 51°25.293 2°40.727 -999 -999 -999 -999 -999
2009-02-20 09:15:24 51°25.306 2°40.709 -999 -999 -999 -999 -999
2009-02-20 09:15:29 51°25.318 2°40.691 -999 -999 -999 -999 -999
2009-02-20 09:15:33 51°25.328 2°40.676 -999 -999 -999 -999 -999
2009-02-20 09:15:38 51°25.341 2°40.659 -999 -999 -999 -999 -999
2009-02-20 09:15:44 51°25.355 2°40.637 -999 -999 -999 -999 -999
2009-02-20 09:15:49 51°25.367 2°40.619 -999 -999 -999 -999 -999
2009-02-20 09:15:53 51°25.377 2°40.604 -999 -999 -999 -999 -999